Wind_Speed
14 13 13 14 14 14 13 12 13 12 12 13 13 13 11 11 10 7 5 6 6 9 15 18 15 10 7 6 7 9 11 8 10 10 11 13 18 18 18 17 17 15 16 16 15
15 14 14 14 13 13 12 13 12 11 11 11 13 14 15 14 13 11 10 7 7 9 11 18 17 14 10 7 6 12 13 9 9 9 13 13 13 16 17 14 16 15 15 17 16
15 14 14 13 15 12 12 13 13 11 10 10 11 13 15 16 15 13 15 11 8 9 12 17 19 17 15 13 11 9 12 9 11 11 12 15 12 12 14 15 14 15 12 14 15
16 16 14 13 13 13 12 13 13 11 10 10 11 11 14 16 18 16 16 16 13 10 13 16 21 20 19 14 18 10 15 15 11 7 12 14 12 10 10 13 13 14 14 10 13
16 16 15 13 14 16 16 14 11 12 11 12 13 13 13 14 18 19 19 18 18 13 14 17 22 25 22 16 15 13 15 13 10 9 5 9 11 9 9 9 12 12 14 12 10
19 18 18 16 15 15 17 16 13 12 12 13 13 12 12 13 16 21 22 21 20 18 14 19 22 25 24 20 12 19 15 8 13 13 5 6 10 13 10 8 9 11 12 11 9
24 23 21 20 19 18 16 17 16 14 12 14 15 14 13 11 16 21 24 24 22 22 21 20 21 23 23 22 17 17 13 16 13 13 11 8 9 10 12 10 9 8 10 11 9
20 21 23 22 21 20 20 20 19 17 15 14 16 15 15 14 13 20 27 28 27 25 26 24 21 21 27 23 20 15 15 19 18 17 14 11 11 10 12 13 12 10 9 10 10
20 21 22 22 21 21 22 21 20 20 18 17 17 16 15 15 15 16 24 27 28 28 27 27 24 21 22 25 25 24 22 19 23 19 17 12 15 13 13 12 12 12 11 9 10
25 24 23 25 26 25 24 22 23 22 21 20 18 17 15 15 17 18 23 28 29 29 29 27 28 24 21 22 25 27 22 23 16 12 13 17 20 18 13 12 13 11 10 11 10
29 28 28 27 26 23 26 27 25 24 22 21 20 19 15 14 16 18 21 28 31 31 30 29 27 25 26 24 26 27 28 27 20 15 13 21 20 19 15 10 12 10 10 10 12
25 26 27 28 24 25 22 24 25 25 24 22 22 20 16 15 17 18 20 26 31 32 30 29 27 28 32 31 28 28 27 27 28 24 19 21 22 24 19 17 12 12 10 8 12
23 24 24 27 26 24 24 23 24 25 23 23 23 22 19 17 17 19 20 23 31 34 31 29 29 32 30 34 33 30 30 34 32 33 29 24 27 26 22 18 10 10 11 10 9
24 25 26 26 27 26 26 24 22 24 22 22 23 25 21 19 19 18 19 21 27 32 32 31 32 33 33 32 36 34 31 34 38 37 33 29 28 25 22 17 13 13 12 12 9
26 26 23 25 27 26 25 22 21 22 22 24 24 24 23 21 19 19 19 21 26 30 31 33 33 33 35 33 33 37 35 34 38 37 34 31 32 27 23 16 14 12 13 10 10
27 25 23 24 23 23 20 19 18 19 22 22 23 24 23 22 21 21 22 21 26 29 30 33 34 35 34 36 35 36 38 36 39 41 39 37 35 32 22 16 14 19 15 13 10
25 24 24 27 23 22 18 18 17 18 19 20 21 22 21 20 23 22 23 23 25 28 32 34 35 36 37 36 38 36 36 40 40 43 46 43 39 31 22 19 18 21 18 18 16
25 22 26 27 25 21 17 18 18 17 19 17 18 21 19 19 19 19 19 20 24 27 29 34 36 37 38 39 38 37 37 39 43 43 44 43 46 34 24 21 18 24 26 22 17
23 23 24 24 20 14 15 19 16 17 17 19 19 17 18 18 18 19 20 21 21 24 28 29 34 38 39 42 42 41 40 38 42 46 46 46 42 28 31 28 22 22 19 17 16
24 24 24 20 19 14 12 18 21 18 18 19 16 17 17 16 18 19 20 19 18 21 26 28 28 34 38 42 44 43 43 43 43 44 47 48 42 27 29 23 24 19 16 23 24
27 26 23 20 18 15 12 13 18 25 25 16 16 16 17 18 19 20 20 18 17 18 21 25 27 30 35 39 42 44 45 45 45 45 44 46 44 29 31 31 22 19 22 28 26
29 29 25 21 16 14 14 10 8 7 6 14 17 19 21 21 21 23 23 21 19 18 19 20 23 27 31 34 40 43 44 46 48 47 46 44 39 36 33 34 31 29 30 32 28
29 31 27 23 16 12 12 14 11 12 14 17 19 22 23 24 26 25 23 24 22 23 23 21 22 25 29 32 34 39 43 45 46 48 48 44 35 39 39 35 30 29 33 35 31
31 29 25 23 19 11 10 13 16 16 18 20 23 25 26 27 27 27 26 27 27 28 28 26 25 26 29 31 31 34 39 41 44 47 50 46 34 35 39 38 34 34 32 36 25
30 27 25 20 18 14 11 12 15 20 23 24 26 27 27 26 27 29 29 26 27 29 30 31 30 28 29 34 35 35 37 40 44 46 49 48 43 44 40 37 38 37 35 37 29
30 28 25 22 20 16 13 15 17 20 23 24 25 27 28 29 31 28 28 28 28 27 29 31 34 34 33 34 40 41 41 41 43 48 50 48 47 45 45 42 38 39 42 40 40
31 29 25 23 21 20 17 18 20 21 22 23 23 26 29 26 24 25 25 25 25 26 28 31 33 34 39 36 38 42 46 45 44 47 51 48 51 50 48 44 39 41 41 42 41
Wind_Direction
336 328 312 299 300 302 303 302 303 299 292 278 268 258 253 248 231 226 244 225 191 188 191 182 181 188 193 168 159 167 119 111 111 101 101 124 139 145 135 132 128 127 121 111 99
322 323 322 315 311 308 305 308 312 315 304 290 270 260 253 250 245 228 231 231 210 196 195 192 182 193 206 214 197 130 137 133 126 103 113 125 150 148 134 139 135 132 123 117 106
308 306 304 301 299 299 304 311 312 318 318 309 293 265 256 250 248 237 234 223 219 191 193 196 191 195 208 198 185 172 181 155 119 108 118 125 137 141 141 144 142 136 125 122 113
298 296 296 292 285 276 281 294 299 295 301 312 320 302 266 250 243 241 239 233 222 197 196 196 200 202 205 204 190 202 215 173 156 130 116 121 130 144 146 149 149 145 135 127 118
297 296 295 289 285 270 269 276 281 286 295 298 298 300 292 260 238 234 237 233 230 218 195 200 202 206 205 208 198 203 193 200 189 195 170 135 152 153 153 156 155 153 144 143 129
295 292 291 289 284 277 269 272 274 263 277 290 293 300 287 270 241 232 230 231 230 225 206 204 207 211 208 212 203 199 215 163 188 190 214 156 156 162 167 166 170 165 152 148 142
291 285 283 282 287 284 274 271 264 257 271 268 279 291 283 267 240 229 226 226 227 221 221 213 213 214 213 217 207 179 193 191 196 184 176 178 163 169 170 175 183 184 174 155 156
306 296 279 277 277 278 278 270 260 258 263 265 261 273 278 267 248 234 225 222 222 222 221 222 213 211 216 218 216 204 195 215 209 166 193 180 192 193 186 174 180 190 188 175 165
302 294 293 288 281 277 273 270 259 257 256 257 256 257 272 267 254 232 227 226 224 223 222 225 223 214 215 220 223 219 207 198 181 187 199 195 194 200 196 172 172 182 187 183 180
305 303 294 289 287 283 276 266 264 264 260 257 252 248 259 257 246 233 221 223 224 223 223 220 223 220 216 217 228 226 225 209 206 165 200 211 205 201 200 185 172 175 184 191 189
297 296 297 288 285 282 277 274 271 269 262 257 252 249 250 248 246 241 228 219 222 222 223 221 221 218 218 217 221 222 223 219 220 188 188 206 205 209 212 210 168 162 183 197 203
301 296 291 289 286 283 278 271 266 265 264 259 255 249 247 236 237 235 230 224 222 221 221 221 217 218 213 219 215 221 215 216 219 210 210 214 212 217 219 224 208 166 184 184 213
313 311 303 295 287 284 284 273 262 259 260 256 252 246 238 233 228 232 231 228 223 221 215 217 217 222 217 217 218 214 214 215 222 215 211 208 216 218 218 228 247 210 182 196 213
319 315 305 296 290 285 280 274 258 250 251 249 248 247 241 233 225 226 231 229 223 223 216 214 215 219 225 218 220 217 214 216 221 223 217 212 212 218 221 216 225 243 198 198 205
321 320 315 306 299 291 281 268 259 250 241 240 239 241 238 233 228 222 223 228 228 222 217 216 217 217 221 224 219 222 218 217 226 229 217 222 222 210 218 218 221 234 224 201 201
325 321 323 327 312 297 284 272 258 246 240 233 234 233 234 231 230 226 223 219 224 227 223 221 219 220 220 222 221 220 223 219 223 229 225 218 220 206 206 211 221 234 233 225 222
323 325 323 315 301 291 290 272 255 241 240 235 232 234 232 230 236 232 232 225 221 226 223 223 223 224 223 223 225 219 222 226 225 227 229 224 227 198 206 220 226 229 229 220 223
325 327 325 322 304 281 275 261 248 237 233 228 231 231 227 227 235 236 239 236 231 226 227 226 225 227 225 226 224 224 221 227 231 233 236 234 237 213 206 223 231 235 239 243 247
331 331 335 340 340 295 270 266 244 227 232 231 232 233 230 226 230 234 236 235 230 229 231 228 228 227 227 228 227 224 224 226 232 235 236 238 240 219 211 222 227 226 229 241 245
323 336 332 341 349 334 291 273 264 219 219 220 231 243 237 236 235 237 240 243 241 233 232 230 229 227 227 229 229 229 223 224 229 235 239 243 240 220 212 215 224 233 245 234 237
314 323 325 327 337 327 312 287 268 227 220 203 226 232 240 242 237 239 241 238 238 236 234 233 228 229 229 228 228 230 229 224 226 230 236 243 247 223 213 212 218 211 225 212 226
312 316 317 315 318 318 298 277 237 193 217 227 230 227 234 234 237 241 243 246 245 239 236 234 226 228 232 232 229 228 232 229 226 229 231 236 239 236 224 220 220 219 211 206 212
310 309 307 303 305 310 292 272 238 211 224 238 239 236 238 241 240 240 245 246 245 245 241 231 231 220 225 231 233 233 230 230 229 229 231 233 235 235 233 228 213 217 212 203 202
313 310 302 291 293 283 287 270 248 226 224 231 235 239 243 245 247 252 257 254 249 242 245 242 236 227 222 224 229 232 236 234 228 228 231 231 227 233 230 234 218 215 210 205 207
312 310 298 289 285 270 260 263 248 236 232 232 237 242 246 249 256 260 260 255 249 244 237 241 245 241 230 224 222 223 228 234 231 228 229 231 233 235 226 229 229 212 218 208 211
313 306 292 277 278 262 261 263 253 245 243 243 243 247 252 257 259 257 253 250 249 246 244 240 243 246 242 232 226 223 222 227 232 228 229 231 232 234 230 225 220 226 219 228 215
307 299 289 274 260 255 257 257 256 250 248 247 248 252 255 255 253 251 251 251 250 248 247 248 245 242 245 243 236 229 222 226 229 231 228 229 233 235 235 231 225 224 227 227 233
Height
5876 5875 5874 5873 5873 5873 5873 5873 5872 5872 5873 5873 5875 5876 5878 5879 5881 5882 5883 5885 5887 5888 5891 5894 5896 5898 5899 5902 5904 5904 5905 5905 5906 5906 5907 5907 5908 5909 5910 5911 5911 5912 5912 5912 5912
5875 5873 5872 5871 5871 5870 5870 5869 5869 5870 5870 5870 5871 5873 5875 5877 5878 5881 5882 5884 5886 5888 5889 5892 5896 5898 5898 5900 5904 5904 5905 5906 5906 5907 5907 5908 5911 5911 5912 5914 5913 5913 5914 5914 5914
5871 5870 5869 5869 5868 5868 5867 5867 5866 5867 5867 5867 5867 5869 5871 5874 5877 5879 5880 5882 5884 5887 5889 5891 5894 5896 5897 5900 5903 5904 5905 5908 5908 5908 5909 5908 5911 5912 5913 5915 5915 5915 5916 5916 5917
5867 5866 5866 5866 5865 5865 5864 5864 5863 5863 5864 5864 5865 5865 5867 5869 5874 5876 5877 5880 5882 5885 5887 5889 5891 5893 5896 5899 5902 5905 5905 5908 5909 5910 5909 5910 5911 5912 5913 5916 5917 5916 5917 5920 5919
5864 5863 5862 5861 5861 5861 5861 5861 5860 5860 5860 5860 5861 5862 5863 5865 5868 5871 5873 5877 5880 5883 5885 5887 5889 5890 5894 5897 5901 5905 5906 5907 5910 5910 5911 5911 5912 5914 5914 5915 5917 5918 5918 5920 5921
5861 5860 5859 5858 5857 5856 5856 5856 5856 5857 5856 5856 5856 5858 5859 5861 5863 5866 5869 5872 5876 5881 5883 5884 5886 5888 5893 5895 5899 5904 5905 5907 5908 5910 5912 5912 5913 5914 5916 5916 5917 5918 5918 5919 5921
5856 5855 5855 5854 5854 5853 5852 5852 5851 5852 5852 5852 5852 5852 5854 5856 5857 5860 5864 5868 5872 5876 5880 5882 5884 5888 5891 5893 5897 5902 5905 5906 5908 5910 5912 5914 5914 5914 5916 5916 5917 5919 5919 5919 5922
5851 5849 5848 5848 5848 5847 5848 5847 5847 5847 5847 5847 5848 5848 5848 5850 5852 5854 5858 5862 5866 5871 5875 5879 5882 5886 5888 5893 5896 5900 5902 5904 5907 5908 5911 5915 5916 5915 5915 5916 5917 5919 5920 5921 5922
5845 5844 5843 5843 5843 5842 5841 5841 5841 5842 5842 5843 5843 5844 5844 5844 5847 5849 5853 5857 5862 5867 5871 5875 5880 5884 5888 5890 5894 5896 5900 5904 5906 5907 5910 5913 5914 5914 5915 5915 5917 5918 5920 5921 5923
5840 5839 5839 5838 5838 5837 5836 5835 5836 5836 5837 5838 5838 5840 5839 5840 5841 5843 5847 5852 5856 5862 5867 5872 5876 5882 5885 5888 5891 5894 5898 5901 5903 5907 5909 5912 5913 5914 5915 5915 5915 5917 5919 5920 5923
5834 5832 5830 5829 5828 5828 5829 5830 5832 5832 5831 5833 5833 5833 5834 5835 5837 5839 5842 5846 5850 5856 5862 5868 5873 5879 5882 5884 5886 5889 5893 5897 5899 5904 5909 5911 5912 5913 5915 5916 5915 5915 5918 5919 5922
5826 5824 5823 5820 5820 5820 5820 5821 5822 5825 5825 5826 5827 5828 5829 5830 5832 5834 5837 5841 5845 5850 5856 5863 5869 5870 5875 5879 5883 5886 5889 5892 5895 5900 5905 5909 5910 5912 5915 5916 5916 5915 5917 5918 5919
5821 5819 5817 5814 5812 5811 5811 5812 5814 5815 5818 5820 5821 5823 5823 5825 5826 5829 5832 5835 5839 5844 5850 5857 5862 5864 5869 5873 5878 5882 5886 5889 5891 5894 5900 5904 5906 5909 5913 5917 5918 5916 5915 5917 5919
5816 5812 5811 5807 5806 5804 5803 5803 5804 5806 5810 5813 5815 5817 5819 5820 5821 5823 5826 5830 5834 5838 5844 5849 5853 5858 5863 5868 5873 5878 5882 5884 5885 5888 5895 5900 5905 5907 5910 5914 5916 5917 5916 5917 5919
5810 5807 5803 5800 5799 5797 5797 5796 5797 5799 5802 5805 5807 5810 5813 5816 5817 5819 5822 5826 5828 5833 5839 5844 5847 5852 5857 5862 5867 5872 5876 5879 5880 5883 5891 5895 5900 5905 5908 5913 5915 5916 5916 5916 5917
5804 5800 5798 5795 5793 5790 5789 5789 5791 5794 5794 5798 5801 5803 5807 5810 5812 5814 5817 5821 5825 5829 5834 5837 5841 5846 5851 5856 5860 5865 5870 5875 5877 5879 5883 5889 5894 5901 5907 5912 5913 5913 5915 5914 5915
5799 5795 5792 5789 5785 5783 5784 5785 5787 5787 5791 5793 5795 5798 5801 5805 5808 5809 5813 5817 5820 5824 5827 5831 5835 5840 5846 5849 5854 5860 5865 5868 5872 5873 5878 5884 5887 5899 5905 5908 5909 5909 5911 5912 5914
5794 5790 5786 5781 5776 5776 5778 5779 5781 5783 5785 5788 5790 5794 5798 5800 5803 5805 5807 5811 5815 5818 5821 5825 5830 5833 5839 5843 5848 5854 5859 5863 5865 5868 5872 5878 5878 5895 5901 5902 5905 5907 5907 5910 5913
5790 5786 5781 5775 5771 5770 5774 5775 5776 5778 5782 5784 5786 5790 5793 5795 5799 5801 5802 5805 5809 5813 5816 5819 5823 5827 5832 5835 5841 5846 5852 5858 5858 5861 5865 5869 5877 5891 5895 5899 5901 5904 5906 5908 5910
5786 5782 5778 5773 5769 5769 5770 5771 5771 5773 5777 5780 5783 5786 5789 5792 5794 5796 5798 5801 5804 5807 5809 5813 5817 5820 5824 5828 5833 5837 5843 5848 5851 5855 5858 5862 5871 5885 5890 5893 5897 5899 5903 5904 5905
5782 5778 5774 5771 5768 5766 5766 5766 5766 5768 5770 5774 5780 5782 5785 5787 5789 5791 5793 5796 5798 5801 5803 5807 5812 5815 5817 5820 5824 5829 5833 5841 5845 5849 5853 5858 5863 5880 5884 5888 5892 5896 5900 5901 5903
5776 5774 5770 5767 5766 5763 5763 5762 5763 5764 5767 5771 5775 5777 5779 5781 5783 5785 5788 5790 5793 5796 5798 5800 5804 5808 5811 5813 5817 5821 5825 5832 5836 5843 5847 5851 5859 5868 5875 5882 5887 5892 5895 5897 5900
5770 5768 5764 5761 5761 5759 5758 5759 5759 5761 5763 5766 5768 5771 5772 5774 5777 5779 5781 5784 5787 5789 5792 5795 5797 5801 5803 5807 5810 5814 5816 5821 5829 5835 5839 5845 5852 5856 5865 5872 5880 5884 5889 5890 5895
5764 5761 5758 5754 5754 5754 5754 5754 5754 5755 5757 5759 5761 5763 5765 5767 5770 5772 5775 5777 5780 5783 5785 5787 5790 5794 5797 5799 5802 5807 5809 5813 5819 5826 5831 5838 5843 5847 5858 5864 5873 5878 5882 5885 5890
5757 5754 5751 5749 5748 5747 5748 5750 5750 5750 5751 5752 5754 5756 5759 5761 5762 5764 5767 5769 5772 5775 5778 5780 5783 5786 5789 5791 5794 5797 5801 5804 5810 5815 5822 5828 5834 5839 5849 5856 5863 5871 5875 5879 5884
5749 5746 5744 5743 5741 5740 5740 5743 5744 5744 5745 5746 5748 5750 5751 5754 5756 5757 5758 5761 5763 5767 5770 5773 5775 5777 5780 5783 5786 5789 5793 5796 5800 5806 5812 5820 5826 5831 5840 5846 5854 5861 5868 5872 5875
5740 5738 5735 5737 5734 5733 5733 5734 5736 5736 5738 5740 5742 5743 5744 5746 5748 5749 5750 5752 5755 5757 5760 5763 5766 5770 5771 5774 5776 5780 5785 5789 5793 5796 5803 5811 5817 5823 5830 5837 5845 5852 5858 5864 5869